User: anonymous   Login
Location: Newark
(55.7083°N, 13.1992°E)
Time: 18:44:00
(UTC+00:00)
Language:

Transit 4A - Orbit

View from above orbital plane
View from above orbital plane
View from above satellite
View from above satellite

Ground track
Ground track

The orbit data is extracted from the following two-line orbital elements,

1   116U 61015A   20047.52490466 -.00000050 +00000-0 +20713-4 0  9993
2   116 066.8104 146.2789 0068919 094.5943 266.3013 13.91766044974854
Epoch (UTC): 16 February 2020 12:35:51
Eccentricity: 0.0068919
inclination: 66.8104°
perigee height: 872 km
apogee height: 973 km
right ascension of ascending node: 146.2789°
argument of perigee: 94.5943°
revolutions per day: 13.91766044
mean anomaly at epoch: 266.3013°
orbit number at epoch: 97485

The dashed part of the orbit path shows where the satellite is in the earth's shadow,  

DLR